^^
Grace C. Lehan Memorial Weather Station Historical Data
Daily Summary for February 13, 2021 Units:  Metric    English   Both
Daily Weekly Monthly Yearly
  High: Low: Average:
Temperature: 28.4 °C 14.1 °C 21.6 °C
Dew Point: 18.4 °C 11.1 °C 14.7 °C
Humidity: 95% 36.6% 68%
Wind Speed: 3.2km/h 0km/h 0.5km/h
Wind Gust: 16.1km/h - -
Wind- - SW
Pressure: 1012.1 hPa 1010 hPa -
Precipitation: 0 mm    
 
 
Tabular Data for February 13, 2021
Time Temperature Dew Point Pressure Wind Wind Speed Wind Gust Humidity Rainfall Rate (Hourly) solar
00:04 16.7 °C 14.7 °C 1011.1 hPa Calm     88% 0 mm 0 W/m2
00:09 16.6 °C 14.8 °C 1011.1 hPa Calm     89% 0 mm 0 W/m2
00:14 16.6 °C 14.7 °C 1011.1 hPa Calm     89% 0 mm 0 W/m2
00:19 16.4 °C 14.6 °C 1011.1 hPa Calm     89% 0 mm 0 W/m2
00:24 16.4 °C 14.6 °C 1011.1 hPa Calm     89% 0 mm 0 W/m2
00:29 16.3 °C 14.6 °C 1011.1 hPa Calm     89.4% 0 mm 0 W/m2
00:34 16.3 °C 14.6 °C 1011.1 hPa Calm     90% 0 mm 0 W/m2
00:39 16.2 °C 14.6 °C 1011.1 hPa Calm     90% 0 mm 0 W/m2
00:44 16.2 °C 14.6 °C 1011.1 hPa Calm     90.4% 0 mm 0 W/m2
00:49 16.1 °C 14.5 °C 1011.1 hPa Calm     90% 0 mm 0 W/m2
00:54 16.1 °C 14.4 °C 1011.4 hPa Calm     90% 0 mm 0 W/m2
00:59 16 °C 14.4 °C 1011.4 hPa Calm     90% 0 mm 0 W/m2
01:04 15.9 °C 14.3 °C 1011.4 hPa Calm     90% 0 mm 0 W/m2
01:09 15.9 °C 14.4 °C 1011.1 hPa Calm     90.5% 0 mm 0 W/m2
01:14 15.9 °C 14.4 °C 1011.1 hPa Calm   1.6 km/h 91% 0 mm 0 W/m2
01:19 15.8 °C 14.3 °C 1011.1 hPa Calm   1.6 km/h 90.7% 0 mm 0 W/m2
01:24 15.8 °C 14.4 °C 1011.1 hPa Calm   1.6 km/h 91% 0 mm 0 W/m2
01:29 15.8 °C 14.3 °C 1011.1 hPa Calm   1.6 km/h 91% 0 mm 0 W/m2
01:34 15.8 °C 14.3 °C 1011.1 hPa Calm   1.6 km/h 91% 0 mm 0 W/m2
01:39 15.8 °C 14.3 °C 1011.1 hPa Calm     91% 0 mm 0 W/m2
01:44 15.8 °C 14.3 °C 1011.1 hPa Calm     91% 0 mm 0 W/m2
01:49 15.7 °C 14.3 °C 1011.1 hPa Calm     91% 0 mm 0 W/m2
01:54 15.7 °C 14.3 °C 1011.1 hPa Calm     91% 0 mm 0 W/m2
01:59 15.7 °C 14.3 °C 1011.1 hPa WSW 0.2 km/h 3.2 km/h 91% 0 mm 0 W/m2
02:04 15.7 °C 14.3 °C 1011.1 hPa WSW 0.3 km/h 6.4 km/h 91% 0 mm 0 W/m2
02:09 15.7 °C 14.3 °C 1011.1 hPa WSW 0.3 km/h 6.4 km/h 91% 0 mm 0 W/m2
02:14 15.7 °C 14.2 °C 1011.1 hPa WSW 0.6 km/h 6.4 km/h 91% 0 mm 0 W/m2
02:19 15.7 °C 14.2 °C 1011.1 hPa WSW 0.3 km/h 9.7 km/h 91% 0 mm 0 W/m2
02:24 15.7 °C 14.3 °C 1011.1 hPa Calm   9.7 km/h 91.7% 0 mm 0 W/m2
02:29 15.7 °C 14.4 °C 1011.1 hPa Calm   9.7 km/h 92% 0 mm 0 W/m2
02:34 15.7 °C 14.4 °C 1011.1 hPa Calm   9.7 km/h 92% 0 mm 0 W/m2
02:39 15.6 °C 14.2 °C 1011.1 hPa Calm     91.1% 0 mm 0 W/m2
02:44 15.6 °C 14.1 °C 1011.1 hPa Calm     91% 0 mm 0 W/m2
02:49 15.5 °C 14.1 °C 1011.1 hPa Calm     91% 0 mm 0 W/m2
02:54 15.4 °C 14 °C 1011.1 hPa Calm     91.2% 0 mm 0 W/m2
02:59 15.4 °C 14.1 °C 1011.1 hPa Calm     91.9% 0 mm 0 W/m2
03:04 15.3 °C 13.9 °C 1011.1 hPa Calm     91.3% 0 mm 0 W/m2
03:09 15.3 °C 13.8 °C 1011.1 hPa Calm     91% 0 mm 0 W/m2
03:14 15.2 °C 13.7 °C 1011.1 hPa Calm     91% 0 mm 0 W/m2
03:19 15.1 °C 13.7 °C 1011.1 hPa Calm     91% 0 mm 0 W/m2
03:24 15.1 °C 13.7 °C 1011.1 hPa Calm     92% 0 mm 0 W/m2
03:29 14.9 °C 13.7 °C 1011.1 hPa Calm     92% 0 mm 0 W/m2
03:34 14.9 °C 13.6 °C 1011.1 hPa Calm     92% 0 mm 0 W/m2
03:39 14.8 °C 13.6 °C 1011.1 hPa Calm     92% 0 mm 0 W/m2
03:44 14.8 °C 13.6 °C 1011.1 hPa Calm     92% 0 mm 0 W/m2
03:49 14.8 °C 13.5 °C 1011.1 hPa Calm     92% 0 mm 0 W/m2
03:54 14.7 °C 13.4 °C 1011.1 hPa Calm     92% 0 mm 0 W/m2
03:59 14.7 °C 13.4 °C 1011.1 hPa Calm     92% 0 mm 0 W/m2
04:09 14.6 °C 13.3 °C 1011.1 hPa Calm     92.1% 0 mm 0 W/m2
04:14 14.5 °C 13.4 °C 1011.1 hPa Calm     93% 0 mm 0 W/m2
04:19 14.4 °C 13.3 °C 1011.1 hPa Calm     93% 0 mm 0 W/m2
04:24 14.4 °C 13.3 °C 1011.1 hPa Calm     93% 0 mm 0 W/m2
04:29 14.4 °C 13.3 °C 1011.1 hPa Calm     93% 0 mm 0 W/m2
04:34 14.4 °C 13.3 °C 1011.1 hPa Calm     93% 0 mm 0 W/m2
04:39 14.4 °C 13.3 °C 1011.1 hPa Calm     93% 0 mm 0 W/m2
04:44 14.3 °C 13.2 °C 1011.4 hPa Calm     93% 0 mm 0 W/m2
04:49 14.3 °C 13.2 °C 1011.4 hPa Calm     93% 0 mm 0 W/m2
04:54 14.3 °C 13.2 °C 1011.4 hPa Calm     93% 0 mm 0 W/m2
04:59 14.2 °C 13.1 °C 1011.4 hPa Calm     93% 0 mm 0 W/m2
05:04 14.2 °C 13.1 °C 1011.4 hPa Calm     93% 0 mm 0 W/m2
05:09 14.2 °C 13.1 °C 1011.4 hPa Calm     93.2% 0 mm 0 W/m2
05:14 14.2 °C 13.2 °C 1011.4 hPa Calm     93.3% 0 mm 0 W/m2
05:19 14.2 °C 13.2 °C 1011.4 hPa Calm     94% 0 mm 5 W/m2
05:24 14.2 °C 13.2 °C 1011.4 hPa Calm     94% 0 mm 7 W/m2
05:29 14.1 °C 13.2 °C 1011.4 hPa Calm     94% 0 mm 9 W/m2
05:34 14.1 °C 13.2 °C 1011.4 hPa Calm     94% 0 mm 11 W/m2
05:39 14.1 °C 13.2 °C 1011.4 hPa Calm     94% 0 mm 11 W/m2
05:44 14.1 °C 13.1 °C 1011.4 hPa Calm     94% 0 mm 14 W/m2
05:49 14.1 °C 13.1 °C 1011.4 hPa Calm     94% 0 mm 18 W/m2
05:54 14.1 °C 13.1 °C 1011.4 hPa Calm     94% 0 mm 21 W/m2
05:59 14.1 °C 13.2 °C 1011.4 hPa Calm     94% 0 mm 19 W/m2
06:04 14.2 °C 13.2 °C 1011.7 hPa Calm     94% 0 mm 19 W/m2
06:09 14.2 °C 13.3 °C 1011.7 hPa Calm     94% 0 mm 19 W/m2
06:14 14.3 °C 13.3 °C 1011.7 hPa Calm     94% 0 mm 19 W/m2
06:19 14.3 °C 13.3 °C 1011.7 hPa Calm     94% 0 mm 18 W/m2
06:24 14.3 °C 13.4 °C 1011.7 hPa Calm     94% 0 mm 18 W/m2
06:29 14.3 °C 13.4 °C 1011.7 hPa Calm     94% 0 mm 25 W/m2
06:34 14.3 °C 13.4 °C 1011.7 hPa Calm     94% 0 mm 39 W/m2
06:39 14.4 °C 13.4 °C 1011.7 hPa Calm     94% 0 mm 62 W/m2
06:44 14.6 °C 13.6 °C 1012.1 hPa Calm     94% 0 mm 84 W/m2
06:49 14.8 °C 13.8 °C 1011.7 hPa Calm     94.1% 0 mm 86 W/m2
06:54 15.1 °C 14.3 °C 1011.7 hPa Calm     95% 0 mm 81 W/m2
06:59 15.4 °C 14.6 °C 1012.1 hPa Calm     94.7% 0 mm 84 W/m2
07:04 15.8 °C 14.9 °C 1012.1 hPa Calm     94% 0 mm 84 W/m2
07:09 16.2 °C 15.1 °C 1011.7 hPa Calm     93.2% 0 mm 83 W/m2
07:14 16.6 °C 15.2 °C 1012.1 hPa Calm     91.3% 0 mm 79 W/m2
07:19 17 °C 15.3 °C 1012.1 hPa Calm     89.6% 0 mm 62 W/m2
07:24 17.3 °C 15.3 °C 1011.7 hPa Calm     88% 0 mm 279 W/m2
07:29 17.8 °C 15.6 °C 1012.1 hPa Calm     87.2% 0 mm 323 W/m2
07:34 18.3 °C 15.9 °C 1012.1 hPa Calm     86.4% 0 mm 343 W/m2
07:39 18.8 °C 16.2 °C 1012.1 hPa Calm     84.4% 0 mm 364 W/m2
07:44 19.3 °C 16.3 °C 1011.7 hPa Calm     82.5% 0 mm 385 W/m2
07:49 19.7 °C 16.3 °C 1011.7 hPa Calm     80.3% 0 mm 399 W/m2
07:54 20.1 °C 16.4 °C 1011.7 hPa Calm     79.3% 0 mm 420 W/m2
07:59 20.5 °C 16.8 °C 1011.7 hPa Calm     79% 0 mm 429 W/m2
08:00 20.7 °C 16.9 °C 1011.7 hPa Calm     79% 0 mm 417 W/m2
08:09 21.2 °C 16.9 °C 1011.7 hPa Calm     76.5% 0 mm 461 W/m2
08:14 21.6 °C 17.2 °C 1011.7 hPa Calm     76.2% 0 mm 487 W/m2
08:19 21.9 °C 17.4 °C 1011.7 hPa Calm     75.4% 0 mm 501 W/m2
08:24 22.3 °C 17.5 °C 1011.7 hPa Calm     74.2% 0 mm 517 W/m2
08:29 22.6 °C 17.4 °C 1012.1 hPa Calm     72.4% 0 mm 534 W/m2
08:34 22.8 °C 17.3 °C 1012.1 hPa Calm     71.2% 0 mm 552 W/m2
08:39 22.9 °C 17.3 °C 1011.7 hPa Calm     70.8% 0 mm 566 W/m2
08:44 23.1 °C 17.7 °C 1011.7 hPa Calm     71.7% 0 mm 585 W/m2
08:49 23.3 °C 17.8 °C 1011.7 hPa Calm     70.9% 0 mm 599 W/m2
08:54 23.6 °C 17.9 °C 1011.7 hPa Calm     70.7% 0 mm 610 W/m2
08:59 23.8 °C 17.9 °C 1011.7 hPa Calm     69.8% 0 mm 628 W/m2
09:04 24 °C 18.1 °C 1011.7 hPa Calm     69.7% 0 mm 636 W/m2
09:09 24.3 °C 18.4 °C 1011.7 hPa WSW 0.2 km/h 4.8 km/h 69.4% 0 mm 656 W/m2
09:14 24.6 °C 18.3 °C 1011.7 hPa WSW 0.3 km/h 4.8 km/h 68% 0 mm 671 W/m2
09:19 24.8 °C 18.2 °C 1011.7 hPa WSW 0.2 km/h 4.8 km/h 66.4% 0 mm 686 W/m2
09:24 25 °C 18.1 °C 1011.7 hPa Calm   4.8 km/h 65.5% 0 mm 700 W/m2
09:29 25.1 °C 17.8 °C 1011.7 hPa Calm   4.8 km/h 64.1% 0 mm 715 W/m2
09:34 25.2 °C 18.2 °C 1011.7 hPa Calm   4.8 km/h 65.5% 0 mm 729 W/m2
09:39 25.4 °C 18.1 °C 1011.7 hPa Calm   1.6 km/h 64.1% 0 mm 745 W/m2
09:44 25.6 °C 17.7 °C 1011.7 hPa WSW 0.3 km/h 4.8 km/h 61.9% 0 mm 759 W/m2
09:49 25.7 °C 17.2 °C 1011.7 hPa WSW 0.3 km/h 4.8 km/h 59.4% 0 mm 772 W/m2
09:54 25.7 °C 17.4 °C 1011.7 hPa WSW 0.2 km/h 4.8 km/h 60.3% 0 mm 784 W/m2
09:59 26 °C 17.7 °C 1011.7 hPa WSW 0.2 km/h 4.8 km/h 60.1% 0 mm 795 W/m2
10:04 26.3 °C 17.7 °C 1011.7 hPa WSW 0.8 km/h 6.4 km/h 58.8% 0 mm 805 W/m2
10:09 26.6 °C 17.1 °C 1011.7 hPa WSW 0.8 km/h 8 km/h 56% 0 mm 817 W/m2
10:14 26.8 °C 17.2 °C 1011.7 hPa Calm   8 km/h 55.5% 0 mm 830 W/m2
10:19 26.9 °C 17.4 °C 1011.7 hPa WSW 1.8 km/h 14.5 km/h 55.9% 0 mm 837 W/m2
10:24 27 °C 16.7 °C 1011.7 hPa WSW 0.5 km/h 14.5 km/h 53.4% 0 mm 846 W/m2
10:29 27 °C 16.8 °C 1011.7 hPa WSW 1.3 km/h 14.5 km/h 53.7% 0 mm 854 W/m2
10:34 27.2 °C 16.1 °C 1011.7 hPa WSW 0.2 km/h 14.5 km/h 50.9% 0 mm 865 W/m2
10:39 27.2 °C 15.9 °C 1011.7 hPa WSW 0.2 km/h 4.8 km/h 50.1% 0 mm 868 W/m2
10:44 27.1 °C 15.8 °C 1011.7 hPa WSW 0.6 km/h 4.8 km/h 49.9% 0 mm 872 W/m2
10:49 27.1 °C 16.2 °C 1011.7 hPa WSW 0.3 km/h 4.8 km/h 51% 0 mm 882 W/m2
10:54 27.2 °C 15.7 °C 1011.7 hPa WSW 0.8 km/h 9.7 km/h 49.7% 0 mm 893 W/m2
10:59 27.2 °C 16 °C 1011.7 hPa WSW 1.9 km/h 9.7 km/h 50.3% 0 mm 896 W/m2
11:04 27.3 °C 16.3 °C 1011.7 hPa WSW 0.6 km/h 9.7 km/h 51.1% 0 mm 904 W/m2
11:09 27.4 °C 16.2 °C 1011.7 hPa WSW 1.6 km/h 9.7 km/h 50.6% 0 mm 914 W/m2
11:14 27.6 °C 16.4 °C 1011.4 hPa WSW 2.7 km/h 11.3 km/h 50.6% 0 mm 918 W/m2
11:19 27.8 °C 16.6 °C 1011.4 hPa WSW 1.3 km/h 11.3 km/h 50.2% 0 mm 926 W/m2
11:24 28.1 °C 16.4 °C 1011.4 hPa WSW 1.8 km/h 11.3 km/h 49.4% 0 mm 935 W/m2
11:29 28.2 °C 15.7 °C 1011.4 hPa Calm   11.3 km/h 46.8% 0 mm 939 W/m2
11:34 28.1 °C 15.7 °C 1011.4 hPa WSW 0.2 km/h 11.3 km/h 46.9% 0 mm 949 W/m2
11:39 28.1 °C 15.6 °C 1011.4 hPa WSW 0.8 km/h 6.4 km/h 46.8% 0 mm 954 W/m2
11:44 28.1 °C 15.5 °C 1011.4 hPa WSW 0.2 km/h 6.4 km/h 46.4% 0 mm 954 W/m2
11:49 28 °C 15.2 °C 1011.4 hPa SW 1.4 km/h 9.7 km/h 45.6% 0 mm 965 W/m2
11:54 27.9 °C 15.6 °C 1011.4 hPa SSW 0.6 km/h 9.7 km/h 47.1% 0 mm 969 W/m2
11:59 28 °C 16.1 °C 1011.4 hPa SW 2.6 km/h 14.5 km/h 48.5% 0 mm 963 W/m2
12:00 28.1 °C 16.3 °C 1011.4 hPa SW 3.2 km/h 14.5 km/h 49% 0 mm 958 W/m2
12:09 28.3 °C 15.7 °C 1011.4 hPa WSW 2.6 km/h 8 km/h 46.4% 0 mm 979 W/m2
12:14 28.4 °C 15.3 °C 1011.4 hPa WSW 0.5 km/h 8 km/h 45% 0 mm 983 W/m2
12:19 28.4 °C 16.2 °C 1011.4 hPa SSW 0.3 km/h 8 km/h 47.5% 0 mm 990 W/m2
12:24 28.4 °C 14.9 °C 1011.4 hPa SSW 0.8 km/h 9.7 km/h 43.8% 0 mm 1018 W/m2
12:29 28.2 °C 14.9 °C 1011.4 hPa SW 1.6 km/h 12.9 km/h 44.5% 0 mm 1051 W/m2
12:34 28 °C 14.3 °C 1011.4 hPa WSW 2.4 km/h 16.1 km/h 43.3% 0 mm 287 W/m2
12:39 27.7 °C 14.8 °C 1011.4 hPa SW 0.5 km/h 16.1 km/h 45.4% 0 mm 1027 W/m2
12:44 27.5 °C 15.3 °C 1011.4 hPa SW 0.2 km/h 16.1 km/h 47.3% 0 mm 1027 W/m2
12:49 27.5 °C 14.1 °C 1011.1 hPa SW 0.8 km/h 16.1 km/h 43.8% 0 mm 1027 W/m2
12:54 27.6 °C 13.9 °C 1011.1 hPa SSW 0.5 km/h 16.1 km/h 43.2% 0 mm 1032 W/m2
12:59 27.8 °C 14.1 °C 1011.1 hPa WSW 0.8 km/h 16.1 km/h 43.2% 0 mm 1049 W/m2
13:04 27.9 °C 15.1 °C 1011.1 hPa WSW 2.3 km/h 16.1 km/h 45.5% 0 mm 1088 W/m2
13:09 28.2 °C 14.1 °C 1011.1 hPa SSW 0.6 km/h 14.5 km/h 42.1% 0 mm 1111 W/m2
13:14 28.2 °C 14.7 °C 1011.1 hPa SW 2.4 km/h 14.5 km/h 43.7% 0 mm 269 W/m2
13:19 28.1 °C 15.2 °C 1011.1 hPa WSW 1.1 km/h 14.5 km/h 45.5% 0 mm 1137 W/m2
13:24 28.2 °C 15.6 °C 1011.1 hPa WSW 1 km/h 14.5 km/h 46.2% 0 mm 1144 W/m2
13:29 28.2 °C 15.2 °C 1010.7 hPa WSW 1.1 km/h 14.5 km/h 45.1% 0 mm 1095 W/m2
13:34 28.2 °C 15.2 °C 1011.1 hPa WSW 1.6 km/h 14.5 km/h 45.2% 0 mm 1060 W/m2
13:39 28.2 °C 15.2 °C 1010.7 hPa West 2.1 km/h 8 km/h 45.1% 0 mm 1067 W/m2
13:44 28.3 °C 15.3 °C 1010.7 hPa West 2.1 km/h 8 km/h 45% 0 mm 1056 W/m2
13:49 28.3 °C 15 °C 1010.7 hPa West 0.6 km/h 8 km/h 44.2% 0 mm 165 W/m2
13:54 28.1 °C 14.8 °C 1010.7 hPa West 1 km/h 8 km/h 44.2% 0 mm 867 W/m2
13:59 27.8 °C 15 °C 1010.7 hPa WSW 0.5 km/h 8 km/h 45.6% 0 mm 1092 W/m2
14:04 27.8 °C 15.5 °C 1010.7 hPa WSW 3.1 km/h 11.3 km/h 47.1% 0 mm 1016 W/m2
14:09 28 °C 15.5 °C 1010.7 hPa West 1.8 km/h 11.3 km/h 46.5% 0 mm 1009 W/m2
14:14 28.3 °C 15.2 °C 1010.7 hPa WSW 1.6 km/h 11.3 km/h 45% 0 mm 1004 W/m2
14:19 28.3 °C 14.8 °C 1010.7 hPa West 1.1 km/h 11.3 km/h 43.7% 0 mm 775 W/m2
14:24 28.2 °C 14.4 °C 1010.7 hPa WSW 0.8 km/h 11.3 km/h 42.9% 0 mm 775 W/m2
14:29 28 °C 14.3 °C 1010.7 hPa WSW 1.3 km/h 11.3 km/h 43.3% 0 mm 960 W/m2
14:34 27.9 °C 14.3 °C 1010.7 hPa SW 0.8 km/h 11.3 km/h 43.5% 0 mm 954 W/m2
14:39 28 °C 14.6 °C 1010.7 hPa SW 2.7 km/h 9.7 km/h 43.8% 0 mm 1042 W/m2
14:44 28.1 °C 13.7 °C 1010.7 hPa South 0.5 km/h 9.7 km/h 41.1% 0 mm 954 W/m2
14:49 28.2 °C 14.7 °C 1010.7 hPa SW 3.2 km/h 9.7 km/h 43.8% 0 mm 1051 W/m2
14:54 28.3 °C 14.2 °C 1010.7 hPa SW 1.4 km/h 9.7 km/h 42% 0 mm 981 W/m2
14:59 28.4 °C 14.4 °C 1010.7 hPa SW 1.9 km/h 9.7 km/h 42.6% 0 mm 981 W/m2
15:04 28.3 °C 13.6 °C 1010.7 hPa SW 0.5 km/h 9.7 km/h 40.3% 0 mm 439 W/m2
15:06 28.2 °C 12.9 °C 1010.7 hPa SW 0.5 km/h 6.4 km/h 39% 0 mm 439 W/m2
15:30 27.8 °C 12.2 °C 1010.7 hPa SW 1.6 km/h 9.7 km/h 38% 0 mm 615 W/m2
16:09 27.6 °C 11.4 °C 1010.7 hPa SSW 0.3 km/h 9.7 km/h 36.6% 0 mm 874 W/m2
16:14 27.6 °C 11.8 °C 1010.7 hPa SSW 1.1 km/h 6.4 km/h 37.7% 0 mm 626 W/m2
16:19 27.4 °C 11.6 °C 1010.7 hPa SSW 0.5 km/h 6.4 km/h 37.4% 0 mm 179 W/m2
16:24 27.3 °C 11.8 °C 1010.7 hPa SSW 0.3 km/h 6.4 km/h 38.3% 0 mm 137 W/m2
16:29 27.1 °C 12 °C 1010.7 hPa SSW 0.2 km/h 6.4 km/h 39% 0 mm 142 W/m2
16:34 27 °C 11.6 °C 1010.7 hPa SSW 1.1 km/h 6.4 km/h 38.3% 0 mm 130 W/m2
16:39 26.9 °C 11.5 °C 1010.7 hPa South 2.9 km/h 8 km/h 38.3% 0 mm 69 W/m2
16:44 26.8 °C 11.4 °C 1010.7 hPa SW 1.9 km/h 8 km/h 38.3% 0 mm 51 W/m2
16:49 26.8 °C 11.1 °C 1010.4 hPa SSE 1.6 km/h 8 km/h 37.4% 0 mm 47 W/m2
16:54 26.7 °C 11.5 °C 1010.4 hPa South 1.3 km/h 8 km/h 38.8% 0 mm 46 W/m2
16:59 26.7 °C 11.9 °C 1010.4 hPa Calm   8 km/h 39.8% 0 mm 44 W/m2
17:04 26.7 °C 12.1 °C 1010.4 hPa SSW 1.8 km/h 8 km/h 40.1% 0 mm 44 W/m2
17:09 26.7 °C 11.7 °C 1010.4 hPa South 1 km/h 8 km/h 39.2% 0 mm 44 W/m2
17:14 26.7 °C 11.8 °C 1010.4 hPa South 1 km/h 8 km/h 39.6% 0 mm 44 W/m2
17:19 26.5 °C 12.2 °C 1010 hPa South 1.4 km/h 8 km/h 41.1% 0 mm 53 W/m2
17:24 26.4 °C 12.4 °C 1010 hPa SSW 1.1 km/h 9.7 km/h 42% 0 mm 53 W/m2
17:29 26.3 °C 12.1 °C 1010 hPa SW 1.6 km/h 9.7 km/h 41.2% 0 mm 42 W/m2
17:34 26.3 °C 11.8 °C 1010 hPa WSW 1 km/h 9.7 km/h 40.3% 0 mm 40 W/m2
17:39 26.3 °C 11.9 °C 1010 hPa WSW 0.8 km/h 6.4 km/h 40.7% 0 mm 44 W/m2
17:44 26.3 °C 11.5 °C 1010.4 hPa WSW 1 km/h 9.7 km/h 39.7% 0 mm 40 W/m2
17:49 26.2 °C 11.8 °C 1010.4 hPa WSW 1.1 km/h 9.7 km/h 40.5% 0 mm 40 W/m2
17:54 26.2 °C 11.7 °C 1010.4 hPa WSW 3.2 km/h 11.3 km/h 40.6% 0 mm 37 W/m2
17:59 26.1 °C 12.2 °C 1010.4 hPa WSW 2.1 km/h 11.3 km/h 42% 0 mm 37 W/m2
18:04 26.1 °C 12.4 °C 1010.4 hPa WSW 0.8 km/h 11.3 km/h 42.7% 0 mm 35 W/m2
18:09 26.1 °C 12.6 °C 1010.4 hPa WSW 0.6 km/h 6.4 km/h 43.2% 0 mm 35 W/m2
18:14 25.9 °C 12.9 °C 1010.4 hPa SSW 1.6 km/h 6.4 km/h 44.4% 0 mm 33 W/m2
18:19 25.8 °C 12.2 °C 1010 hPa South 1.3 km/h 6.4 km/h 42.6% 0 mm 33 W/m2
18:24 25.7 °C 12 °C 1010.4 hPa SW 2.4 km/h 9.7 km/h 42.5% 0 mm 32 W/m2
18:29 25.6 °C 11.6 °C 1010.4 hPa SSW 1.4 km/h 9.7 km/h 41.7% 0 mm 32 W/m2
18:34 25.4 °C 12.1 °C 1010 hPa SSW 0.5 km/h 9.7 km/h 43.3% 0 mm 32 W/m2
18:39 25.3 °C 12.8 °C 1010.4 hPa SSW 0.5 km/h 4.8 km/h 45.6% 0 mm 30 W/m2
18:44 25.3 °C 13.4 °C 1010 hPa SSW 0.2 km/h 4.8 km/h 47.9% 0 mm 30 W/m2
18:49 25.2 °C 13.6 °C 1010 hPa SSW 1 km/h 6.4 km/h 48.7% 0 mm 28 W/m2
18:54 25.1 °C 13.4 °C 1010 hPa SSW 1.4 km/h 6.4 km/h 48.1% 0 mm 28 W/m2
18:59 25 °C 13.7 °C 1010 hPa SW 0.8 km/h 6.4 km/h 49.5% 0 mm 28 W/m2
19:04 24.8 °C 13.8 °C 1010 hPa SW 0.6 km/h 8 km/h 50.4% 0 mm 26 W/m2
19:09 24.7 °C 14.4 °C 1010 hPa WSW 0.3 km/h 8 km/h 52.7% 0 mm 26 W/m2
19:14 24.6 °C 14.8 °C 1010 hPa WSW 1.3 km/h 8 km/h 54.6% 0 mm 25 W/m2
19:19 24.4 °C 15.1 °C 1010 hPa SW 0.3 km/h 8 km/h 55.9% 0 mm 25 W/m2
19:24 24.3 °C 15.1 °C 1010 hPa SW 1.3 km/h 8 km/h 56.4% 0 mm 23 W/m2
19:29 24.1 °C 15.2 °C 1010 hPa WSW 0.2 km/h 8 km/h 57.5% 0 mm 21 W/m2
19:34 24 °C 15.4 °C 1010 hPa Calm   8 km/h 58.8% 0 mm 21 W/m2
19:39 23.9 °C 15.7 °C 1010 hPa Calm   1.6 km/h 60% 0 mm 19 W/m2
19:44 23.7 °C 15.7 °C 1010.4 hPa Calm   1.6 km/h 60.5% 0 mm 18 W/m2
19:49 23.6 °C 15.3 °C 1010.4 hPa Calm   1.6 km/h 60% 0 mm 16 W/m2
19:54 23.4 °C 15.7 °C 1010.4 hPa SW 1.3 km/h 6.4 km/h 61.9% 0 mm 14 W/m2
19:59 23.3 °C 15.8 °C 1010.4 hPa SW 0.5 km/h 6.4 km/h 63% 0 mm 11 W/m2
20:04 23.1 °C 15.7 °C 1010.4 hPa Calm   6.4 km/h 63% 0 mm 9 W/m2
20:09 22.9 °C 15.7 °C 1010.4 hPa SSW 0.3 km/h 4.8 km/h 63.8% 0 mm 7 W/m2
20:14 22.7 °C 15.7 °C 1010.4 hPa Calm   4.8 km/h 64.5% 0 mm 5 W/m2
20:19 22.6 °C 15.6 °C 1010.4 hPa Calm   4.8 km/h 65% 0 mm 0 W/m2
20:24 22.4 °C 15.6 °C 1010.4 hPa Calm   4.8 km/h 65.6% 0 mm 0 W/m2
20:29 22.2 °C 15.6 °C 1010.4 hPa Calm   4.8 km/h 66% 0 mm 0 W/m2
20:34 22.1 °C 15.5 °C 1010.4 hPa Calm   4.8 km/h 66.2% 0 mm 0 W/m2
20:39 22 °C 15.6 °C 1010.4 hPa Calm   1.6 km/h 66.8% 0 mm 0 W/m2
20:44 21.8 °C 15.4 °C 1010.7 hPa SW 0.8 km/h 6.4 km/h 66.6% 0 mm 0 W/m2
20:49 21.7 °C 15.3 °C 1010.4 hPa SW 0.2 km/h 6.4 km/h 67% 0 mm 0 W/m2
20:54 21.6 °C 15.2 °C 1010.4 hPa Calm   6.4 km/h 67% 0 mm 0 W/m2
20:59 21.5 °C 15.1 °C 1010.4 hPa Calm   6.4 km/h 67% 0 mm 0 W/m2
21:04 21.4 °C 15.1 °C 1010.7 hPa Calm   6.4 km/h 67.2% 0 mm 0 W/m2
21:09 21.3 °C 15.2 °C 1010.7 hPa Calm     68% 0 mm 0 W/m2
21:14 21.2 °C 15.3 °C 1010.7 hPa Calm     68.8% 0 mm 0 W/m2
21:19 21.1 °C 15.3 °C 1011.1 hPa Calm     69.5% 0 mm 0 W/m2
21:24 21 °C 15.3 °C 1011.1 hPa Calm     70% 0 mm 0 W/m2
21:29 20.9 °C 15.2 °C 1011.1 hPa SW 0.2 km/h 3.2 km/h 70% 0 mm 0 W/m2
21:34 20.8 °C 15.3 °C 1011.1 hPa SW 0.2 km/h 3.2 km/h 71% 0 mm 0 W/m2
21:39 20.7 °C 15.3 °C 1011.4 hPa SW 0.3 km/h 3.2 km/h 71.2% 0 mm 0 W/m2
21:44 20.6 °C 15.3 °C 1011.4 hPa SW 0.2 km/h 3.2 km/h 72% 0 mm 0 W/m2
21:49 20.5 °C 15.5 °C 1011.4 hPa Calm   3.2 km/h 73% 0 mm 0 W/m2
21:54 20.4 °C 15.5 °C 1011.7 hPa Calm   3.2 km/h 73.6% 0 mm 0 W/m2
21:59 20.3 °C 15.6 °C 1011.7 hPa Calm   3.2 km/h 74.3% 0 mm 0 W/m2
22:04 20.2 °C 15.6 °C 1011.7 hPa Calm   3.2 km/h 75% 0 mm 0 W/m2
22:09 20.1 °C 15.7 °C 1011.7 hPa Calm     75.9% 0 mm 0 W/m2
22:14 20 °C 15.7 °C 1011.7 hPa Calm     76% 0 mm 0 W/m2
22:19 19.9 °C 15.7 °C 1011.7 hPa Calm     76.5% 0 mm 0 W/m2
22:24 19.8 °C 15.7 °C 1011.7 hPa Calm     77% 0 mm 0 W/m2
22:29 19.7 °C 15.7 °C 1012.1 hPa SW 0.2 km/h 3.2 km/h 77.8% 0 mm 0 W/m2
22:34 19.6 °C 15.7 °C 1011.7 hPa Calm   3.2 km/h 78% 0 mm 0 W/m2
22:39 19.5 °C 15.7 °C 1011.7 hPa SW 0.2 km/h 3.2 km/h 78.9% 0 mm 0 W/m2
22:44 19.4 °C 15.7 °C 1011.7 hPa SW 0.2 km/h 3.2 km/h 79% 0 mm 0 W/m2
22:49 19.2 °C 15.7 °C 1011.7 hPa Calm   3.2 km/h 80% 0 mm 0 W/m2
22:54 19.1 °C 15.6 °C 1011.7 hPa Calm   3.2 km/h 80% 0 mm 0 W/m2
22:59 19 °C 15.4 °C 1011.7 hPa Calm   3.2 km/h 80% 0 mm 0 W/m2
23:04 18.9 °C 15.4 °C 1011.7 hPa Calm   3.2 km/h 80.4% 0 mm 0 W/m2
23:09 18.8 °C 15.4 °C 1011.7 hPa Calm     81% 0 mm 0 W/m2
23:14 18.7 °C 15.3 °C 1011.7 hPa Calm     81% 0 mm 0 W/m2
23:19 18.6 °C 15.3 °C 1011.7 hPa Calm     81% 0 mm 0 W/m2
23:24 18.5 °C 15.2 °C 1011.7 hPa Calm     81% 0 mm 0 W/m2
23:29 18.4 °C 15.1 °C 1011.7 hPa Calm     81% 0 mm 0 W/m2
23:34 18.4 °C 15.1 °C 1011.7 hPa Calm     81% 0 mm 0 W/m2
23:39 18.3 °C 15 °C 1011.7 hPa Calm     81% 0 mm 0 W/m2
23:44 18.3 °C 15 °C 1011.7 hPa Calm     81% 0 mm 0 W/m2
23:49 18.3 °C 14.9 °C 1011.7 hPa Calm     81% 0 mm 0 W/m2
23:54 18.2 °C 15.1 °C 1011.7 hPa Calm     81.7% 0 mm 0 W/m2
23:59 18.2 °C 14.9 °C 1011.7 hPa Calm     81.4% 0 mm 0 W/m2
Hartford County Weather
Compliments of Weather Underground - 4 mb